TimeADT,TemperatureF,Dew PointF,Humidity,Sea Level PressureIn,VisibilityMPH,Wind Direction,Wind SpeedMPH,Gust SpeedMPH,PrecipitationIn,Events,Conditions,WindDirDegrees,DateUTC
12:00 AM,60.8,57.2,88,29.95,15.0,SW,4.6,-,N/A,,Partly Cloudy,220,2013-09-22 03:00:00
12:22 AM,-9999,-9999,N/A,-9999,15.0,SSW,4.6,-,N/A,,Mostly Cloudy,210,2013-09-22 03:22:00
1:00 AM,60.8,57.2,88,29.95,15.0,SW,6.9,-,N/A,,Mostly Cloudy,220,2013-09-22 04:00:00
1:36 AM,-9999,-9999,N/A,-9999,15.0,SSW,6.9,-,N/A,,Scattered Clouds,200,2013-09-22 04:36:00
2:00 AM,60.8,59.0,94,29.94,15.0,South,4.6,-,N/A,,Scattered Clouds,190,2013-09-22 05:00:00
3:00 AM,62,59,86,29.92,15,SSW,3.5,,,,Partly Cloudy,210,2013-09-22 06:00:00
3:00 AM,62.6,59.0,88,29.92,15.0,SW,2.3,-,N/A,,Scattered Clouds,220,2013-09-22 06:00:00
4:00 AM,60.8,59.0,94,29.91,15.0,South,10.4,-,N/A,,Scattered Clouds,190,2013-09-22 07:00:00
4:33 AM,-9999,-9999,N/A,-9999,15.0,South,5.8,-,N/A,,Mostly Cloudy,180,2013-09-22 07:33:00
5:00 AM,60.8,59.0,94,29.90,15.0,SSE,5.8,-,N/A,,Mostly Cloudy,160,2013-09-22 08:00:00
5:34 AM,-9999,-9999,N/A,-9999,15.0,SSE,3.5,-,N/A,,Mostly Cloudy,160,2013-09-22 08:34:00
6:00 AM,60.8,60.8,100,29.88,15.0,South,4.6,-,N/A,,Mostly Cloudy,190,2013-09-22 09:00:00
6:20 AM,-9999,-9999,N/A,-9999,15.0,South,5.8,-,N/A,,Mostly Cloudy,190,2013-09-22 09:20:00
7:00 AM,66.2,64.4,94,29.86,15.0,SW,6.9,-,N/A,,Overcast,220,2013-09-22 10:00:00
7:28 AM,-9999,-9999,N/A,-9999,15.0,South,6.9,-,N/A,,Mostly Cloudy,190,2013-09-22 10:28:00
8:00 AM,68.0,64.4,88,29.86,15.0,South,5.8,-,N/A,,Mostly Cloudy,170,2013-09-22 11:00:00
8:41 AM,-9999,-9999,N/A,-9999,15.0,SSW,10.4,-,N/A,,Mostly Cloudy,200,2013-09-22 11:41:00
9:00 AM,71,65,76,29.84,15,South,11.5,,,,Mostly Cloudy,180,2013-09-22 12:00:00
9:00 AM,71.6,64.4,78,29.84,15.0,South,13.8,19.6,N/A,,Mostly Cloudy,180,2013-09-22 12:00:00
10:00 AM,73.4,66.2,78,29.84,15.0,South,15.0,24.2,N/A,,Mostly Cloudy,190,2013-09-22 13:00:00
11:00 AM,75.2,66.2,73,29.81,15.0,South,13.8,29.9,N/A,,Mostly Cloudy,180,2013-09-22 14:00:00
12:00 PM,77.0,64.4,65,29.80,15.0,South,19.6,27.6,N/A,,Mostly Cloudy,180,2013-09-22 15:00:00
1:00 PM,77.0,62.6,61,29.78,15.0,South,28.8,38.0,N/A,,Mostly Cloudy,190,2013-09-22 16:00:00
2:00 PM,78.8,64.4,61,29.74,15.0,South,19.6,29.9,N/A,,Mostly Cloudy,180,2013-09-22 17:00:00
3:00 PM,78,62,49,29.73,15,South,20.7,,,,Partly Cloudy,180,2013-09-22 18:00:00
3:00 PM,78.8,62.6,57,29.73,15.0,South,26.5,35.7,N/A,,Mostly Cloudy,180,2013-09-22 18:00:00
4:00 PM,78.8,62.6,57,29.70,15.0,South,27.6,41.4,N/A,,Mostly Cloudy,190,2013-09-22 19:00:00
5:00 PM,75.2,64.4,69,29.68,15.0,South,20.7,35.7,N/A,,Mostly Cloudy,180,2013-09-22 20:00:00
6:00 PM,75.2,64.4,69,29.68,15.0,South,21.9,32.2,N/A,,Overcast,170,2013-09-22 21:00:00
6:42 PM,-9999,-9999,N/A,-9999,15.0,South,11.5,19.6,N/A,Rain,Light Rain Showers,180,2013-09-22 21:42:00
7:00 PM,71.6,68.0,88,29.68,6.0,SSW,13.8,23.0,N/A,Rain,Light Rain Showers,200,2013-09-22 22:00:00
7:15 PM,-9999,-9999,N/A,-9999,4.0,SSW,8.1,-,N/A,Rain,Light Rain Showers,210,2013-09-22 22:15:00
7:22 PM,-9999,-9999,N/A,-9999,0.8,SSW,8.1,-,N/A,Rain-Thunderstorm,Heavy Thunderstorms and Rain,210,2013-09-22 22:22:00
7:30 PM,-9999,-9999,N/A,-9999,2.0,South,13.8,25.3,N/A,Rain-Thunderstorm,Thunderstorms and Rain,190,2013-09-22 22:30:00
8:00 PM,68.0,68.0,100,29.68,6.0,SW,12.7,24.2,N/A,Rain,Light Rain Showers,220,2013-09-22 23:00:00
9:00 PM,67,67,99,29.67,12,WSW,3.5,,,Rain,Light Rain Showers,240,2013-09-23 00:00:00
9:00 PM,68.0,66.2,94,29.66,12.0,Calm,Calm,-,N/A,Rain,Light Rain Showers,0,2013-09-23 00:00:00
10:00 PM,68.0,66.2,94,29.65,9.0,South,11.5,-,N/A,Rain,Light Rain Showers,190,2013-09-23 01:00:00
10:40 PM,-9999,-9999,N/A,-9999,9.0,SSW,5.8,-,N/A,Rain,Light Rain,210,2013-09-23 01:40:00
11:00 PM,68.0,66.2,94,29.64,6.0,South,8.1,18.4,N/A,Rain,Light Rain,190,2013-09-23 02:00:00
11:30 PM,-9999,-9999,N/A,-9999,3.0,SW,6.9,-,N/A,Rain,Light Rain,230,2013-09-23 02:30:00